ROMMA est une association bénévole à but non lucratif. Votre soutien est indispensable : ADHERER à ROMMA ou FAIRE un DON

Saint-Léger-les-Mélèzes - (05, Hautes-Alpes)

Champsaur (1245 m)   Longitude: 6° 11' 42" E    Latitude: 44° 38' 38" N Station partenaire n°51
 

Détail journalier du     <<     >>

Température Humidité Vent Dir Rafale Dir. rafale Ensol.
Heure (°C) (%) (km/h) (km/h) (min)
01:00 1.7453S8S0
02:00 1.3443S8S0
03:00 1.1442S6S0
04:00 0.8455S10S0
05:00 0.6445S8S0
06:00 0.6443S8S0
07:00 0.1453S8S0
08:00 -0.2465S8S0
09:00 -0.1453S8S0
10:00 2.5381S5S0
11:00 4.33305OSO10
12:00 6.13405OSO30
13:00 8.02905ONO60
14:00 9.3261NO8ONO60
15:00 10.4231O10O60
16:00 10.2271SO10O50
17:00 8.6321SO8S10
18:00 5.9393S8SSE0
19:00 3.7472SSO8S0
20:00 2.5525S8S0
21:00 1.8554S10S0
22:00 1.1595S10S0
23:00 0.6644S8S0
minuit 0.2633S6S0

Graphique du 19-02-2019

 

Serveur OMMA